Theta_e
327 330 331 334 341 339 341 344 344 344 346 350 349 350 352 353 353 360 349 347 347 350 352 351 347 347 348 340 347 347 346 346 346 344 341 335 329 322 323 329 332 333 331 332 330 331 330 322 314
326 327 329 332 338 338 341 342 344 346 351 349 349 348 350 355 345 352 349 346 348 350 350 351 348 347 348 345 345 344 344 344 345 339 332 326 320 324 327 329 329 330 332 330 329 329 329 326 321
324 325 330 335 338 338 339 341 345 348 347 346 347 347 349 355 344 351 350 346 349 350 350 350 348 347 346 344 343 343 344 344 339 332 325 328 329 328 328 330 332 333 331 329 329 327 324 321 319
324 326 329 334 335 334 336 340 344 347 347 345 345 348 350 349 348 350 349 347 347 348 349 349 347 346 345 342 342 343 342 341 334 325 324 325 326 326 328 330 332 333 329 321 320 321 321 321 321
321 326 331 333 333 331 331 335 346 346 347 348 346 346 352 348 349 348 346 345 343 345 347 349 344 344 342 340 341 342 342 338 332 334 333 330 325 326 328 327 327 332 329 327 322 321 321 321 321
325 325 331 334 332 327 331 333 343 346 349 348 346 348 352 348 347 344 342 342 341 344 346 346 341 340 340 341 341 341 339 334 333 334 333 332 327 325 325 325 327 331 330 325 322 322 321 321 322
325 327 330 330 331 331 336 339 343 348 350 350 346 353 350 348 345 343 342 342 342 343 343 345 344 342 339 340 340 339 336 332 332 327 324 324 324 324 323 322 324 324 324 322 321 321 321 321 322
324 326 329 327 329 341 341 344 346 348 348 345 345 352 352 348 344 343 343 342 344 345 345 343 344 344 343 343 340 338 333 324 323 321 322 322 322 322 321 320 322 323 325 325 323 320 320 321 322
322 327 327 325 328 337 343 346 347 347 353 352 349 350 347 344 342 342 342 343 344 341 342 342 342 343 343 342 340 334 328 322 321 322 323 323 329 328 325 328 323 325 328 325 322 320 321 322 323
325 328 325 332 328 341 346 345 347 349 352 352 348 344 344 344 342 342 341 341 340 338 337 338 340 341 341 339 339 337 333 325 328 331 331 331 332 331 329 330 325 327 325 324 321 321 323 324 323
335 339 334 333 340 343 348 349 346 349 353 350 350 345 343 342 339 340 339 337 336 335 336 337 337 336 337 337 335 331 332 329 329 332 333 333 332 331 330 332 332 332 328 328 326 326 325 323 321
341 340 338 337 338 343 348 347 348 349 347 341 339 338 336 335 336 336 335 335 336 336 335 334 334 334 336 335 336 334 329 326 325 329 331 331 332 332 332 331 331 330 329 328 327 326 324 321 320
342 343 342 342 344 345 345 346 345 344 340 338 335 335 335 333 332 332 332 333 334 333 332 331 331 331 332 332 330 328 328 327 328 329 330 331 331 331 330 330 329 328 327 326 324 320 319 319 320
341 343 342 343 343 343 345 344 342 341 338 337 335 335 333 332 332 333 332 331 331 332 331 330 330 330 329 329 329 329 329 328 328 329 329 328 327 327 328 326 326 324 322 321 322 319 318 320 320
341 343 342 342 343 344 342 346 343 337 338 338 336 334 332 332 332 329 327 328 328 330 330 330 330 329 328 328 326 326 324 324 324 324 324 325 323 323 322 322 322 322 322 321 320 317 318 319 318
334 333 340 344 344 341 343 348 341 338 339 339 337 335 333 331 328 327 327 326 326 326 325 323 322 321 322 322 323 323 323 322 322 322 320 321 322 323 323 323 322 322 321 321 318 318 315 315 314
332 338 342 344 344 343 345 345 339 337 338 339 338 335 333 329 327 324 322 321 321 320 320 320 321 322 322 322 321 319 317 318 316 317 316 316 317 317 317 317 320 321 321 319 317 316 312 312 312
335 340 342 344 343 344 344 342 338 336 337 338 336 334 330 327 324 322 321 321 321 321 320 319 318 319 318 318 317 317 316 318 320 318 317 315 315 313 313 315 316 316 319 318 317 315 314 313 312
334 338 343 343 340 341 343 342 340 335 335 334 332 331 330 329 325 324 323 324 324 322 321 320 319 319 317 316 315 314 314 316 316 317 317 317 316 315 315 315 317 319 320 320 319 316 315 314 315
335 339 343 343 342 341 342 341 337 335 334 333 332 331 331 331 329 326 325 323 322 321 320 319 319 318 317 313 314 314 314 314 314 314 313 314 313 313 313 314 315 316 317 319 319 319 315 313 314
332 333 339 338 341 340 341 343 340 336 334 332 333 332 331 331 329 327 324 322 321 320 320 319 319 318 316 314 311 311 312 312 312 311 311 312 313 313 313 314 314 315 316 317 319 319 314 315 315
331 328 333 340 339 336 340 334 343 340 336 333 333 332 331 330 327 324 322 321 320 319 319 319 319 317 314 313 311 313 312 312 312 311 311 311 311 313 313 313 314 315 314 316 317 317 316 316 315
331 331 333 336 336 336 340 338 341 339 339 335 334 331 330 328 325 322 321 320 319 319 318 318 316 314 313 312 312 312 311 311 310 310 310 310 310 312 312 313 313 314 314 314 316 316 315 315 315
333 334 334 336 333 332 336 334 340 339 339 336 333 330 329 325 322 320 320 320 319 318 317 315 313 312 312 312 311 311 311 311 311 311 310 310 309 311 312 312 313 314 314 314 314 315 315 316 314
330 332 330 330 328 330 336 332 344 338 335 334 333 329 326 324 320 320 320 319 319 316 314 311 312 312 312 311 311 310 310 310 310 310 310 310 310 310 312 312 312 313 313 313 313 314 314 314 314
330 330 330 328 327 327 333 334 342 333 332 331 329 326 323 320 320 318 320 318 317 314 311 311 312 311 310 310 310 310 310 310 310 309 310 309 310 311 311 312 312 312 312 313 313 313 314 313 313
330 329 326 328 328 328 328 340 334 331 330 329 327 325 321 320 320 319 319 316 311 312 311 312 311 310 310 310 310 310 310 310 309 309 309 308 309 310 311 311 311 311 312 312 311 311 312 313 313
327 326 327 326 327 325 325 333 337 333 331 329 327 323 322 322 319 319 315 313 311 311 311 310 310 309 309 310 310 309 308 307 305 305 307 308 308 309 310 310 310 310 311 310 309 309 309 310 309
326 326 327 328 328 331 332 339 331 332 331 330 326 325 323 321 319 315 310 310 311 311 310 310 309 309 309 309 308 307 305 306 306 306 305 306 307 308 309 308 309 309 309 309 308 305 306 307 308
329 331 331 334 335 334 333 338 330 329 328 327 325 323 321 318 314 311 312 311 311 310 310 309 309 309 309 308 306 305 306 305 305 304 304 302 304 306 307 307 304 303 304 307 307 308 307 307 308
Wind_Speed
1 3 4 7 6 3 12 10 1 7 8 6 6 4 12 16 11 5 3 9 10 12 14 14 14 13 12 13 14 16 16 16 16 16 16 17 18 19 21 23 22 22 21 20 19 20 20 20 21
3 3 7 5 6 12 10 6 9 9 9 9 8 5 8 15 14 7 11 8 13 10 10 12 12 12 11 10 12 13 14 15 15 14 15 17 19 20 21 21 21 21 19 19 20 19 19 19 19
4 6 5 4 3 11 10 7 9 10 7 2 5 12 6 9 13 6 8 11 11 9 8 9 11 10 10 10 13 13 13 13 14 16 16 16 17 19 19 19 20 19 18 18 18 17 17 17 18
6 6 5 8 9 9 9 7 9 11 7 4 8 11 11 15 6 8 9 11 10 8 8 9 9 8 10 11 9 10 10 12 12 15 17 18 17 17 17 18 18 17 15 14 14 13 13 13 15
8 4 4 4 13 9 2 2 8 10 8 8 4 10 12 11 11 11 12 11 9 9 9 8 7 7 8 10 10 9 9 11 12 12 13 14 16 16 15 14 13 13 12 12 11 11 11 13 14
5 4 7 10 11 9 6 1 6 5 9 10 12 11 9 7 11 8 10 9 7 8 7 7 5 7 8 9 9 10 10 10 11 11 12 11 13 14 13 11 10 9 9 8 8 8 8 10 13
6 6 7 6 9 10 6 3 4 7 10 13 5 10 7 10 9 7 10 9 6 7 6 7 5 5 7 7 9 10 10 11 12 12 13 12 11 10 10 8 7 6 5 3 4 4 6 9 12
4 4 6 5 7 13 5 8 11 10 9 7 8 5 8 10 9 11 10 9 10 9 10 8 7 4 4 6 7 9 10 11 10 12 12 11 10 9 7 4 4 3 3 3 1 3 6 10 14
4 5 6 9 9 9 3 11 12 13 16 18 13 16 17 14 10 12 9 13 11 12 11 9 7 6 5 3 6 3 6 10 9 8 9 8 6 5 4 6 4 3 5 4 4 4 7 12 14
4 5 8 9 6 10 11 11 11 10 16 14 17 17 16 13 12 12 11 10 12 13 11 9 7 4 3 4 7 8 3 7 7 7 7 6 5 6 6 6 6 7 7 7 6 5 10 11 13
7 6 5 7 10 11 17 17 5 15 12 12 12 15 15 16 15 13 14 14 10 10 9 8 7 7 2 2 2 8 7 5 6 5 6 6 6 8 9 9 7 6 6 7 6 8 9 9 10
11 15 9 4 7 5 12 16 21 18 10 14 15 17 19 17 15 17 13 13 14 13 14 12 10 9 9 5 4 3 3 3 5 4 5 7 9 8 10 11 9 9 9 7 7 11 10 10 9
16 13 16 16 18 19 20 19 15 16 14 16 19 19 16 17 17 16 15 14 15 16 16 17 16 15 12 9 7 6 5 3 2 2 4 3 5 6 6 4 6 6 5 5 6 9 8 11 11
13 18 17 13 11 15 19 15 6 8 10 14 16 14 15 16 15 16 16 15 15 15 15 15 16 16 15 13 11 10 9 8 6 7 9 8 5 4 2 1 1 2 6 11 13 14 10 11 11
20 16 14 9 9 16 10 18 10 8 7 13 14 13 13 16 16 17 14 14 13 14 13 12 12 14 14 12 12 12 12 9 8 8 8 9 8 8 10 10 11 12 14 17 12 11 14 10 10
8 5 5 6 4 2 6 4 6 5 9 10 13 12 13 15 16 14 13 13 13 13 15 15 17 17 16 13 11 10 9 7 7 8 9 9 8 7 8 14 19 17 15 14 8 8 7 12 8
7 6 11 8 3 0 4 8 4 4 6 9 10 11 12 13 15 14 13 12 13 14 14 16 17 16 15 15 13 14 14 10 11 9 11 13 11 10 11 14 12 13 13 13 10 8 7 7 12
11 8 6 6 8 9 12 10 7 5 4 7 10 12 11 10 9 10 10 11 12 12 13 15 16 16 13 13 12 12 12 11 10 10 9 8 9 11 11 12 13 12 10 13 11 11 8 9 9
8 10 12 9 6 5 8 9 7 6 6 8 7 7 8 10 10 10 9 9 10 11 13 15 15 13 14 14 16 16 16 12 11 10 10 8 10 10 11 12 12 12 11 14 10 11 8 7 7
8 9 8 6 4 4 7 6 7 5 8 8 6 7 6 6 9 9 9 9 10 11 13 14 14 13 14 16 14 14 14 12 10 10 11 10 12 11 11 10 12 13 15 15 13 10 5 6 9
3 7 6 2 7 4 9 11 10 8 7 6 5 5 6 6 7 7 9 8 10 12 12 13 13 13 13 15 16 16 14 13 12 15 14 14 12 12 11 10 11 13 13 13 10 10 11 11 8
2 3 5 10 10 5 13 5 15 15 10 8 7 5 5 6 6 6 7 8 9 10 11 12 12 13 14 14 16 15 15 16 15 14 14 17 14 13 11 10 11 11 12 11 9 10 11 10 10
6 1 5 9 11 6 14 6 10 11 10 10 7 5 5 4 4 8 9 9 7 8 11 11 12 13 13 15 16 16 17 18 17 17 17 14 12 9 10 9 11 11 11 10 8 8 8 9 10
7 2 5 9 8 12 8 4 9 3 5 2 10 7 6 5 5 8 7 6 6 8 10 12 12 13 15 17 15 15 17 16 16 16 17 16 17 12 10 11 10 9 8 8 8 7 7 8 7
6 8 11 9 7 6 6 6 11 15 11 9 9 9 8 7 9 10 9 11 10 10 11 13 14 16 18 17 15 17 17 16 16 17 17 18 17 14 11 12 10 9 9 9 9 8 7 7 6
4 8 8 13 11 12 5 4 5 8 7 7 10 9 8 5 6 10 9 11 12 12 13 14 16 19 18 17 16 17 16 16 15 14 16 16 16 14 13 10 9 8 8 8 9 8 7 4 5
9 6 7 10 12 9 3 11 8 4 4 4 5 5 3 3 5 7 9 10 11 13 12 15 17 17 18 18 16 15 14 15 16 17 16 16 15 14 12 10 9 10 9 11 10 11 9 4 1
9 5 7 5 7 9 2 6 6 10 3 3 5 3 4 2 3 5 8 9 9 10 15 14 16 19 20 17 14 15 17 17 18 20 17 16 15 14 12 10 9 9 9 11 12 14 14 10 9
8 7 5 4 4 6 7 5 4 7 5 2 3 1 4 2 4 6 9 7 11 16 15 15 16 15 15 16 16 18 17 17 16 15 14 15 15 10 11 12 12 11 10 10 10 11 10 11 8
8 7 6 5 3 4 5 4 5 5 6 4 4 6 6 6 7 3 8 13 16 17 17 15 13 15 14 14 15 14 17 18 17 15 11 15 14 10 8 8 10 11 11 8 7 7 6 7 6
Wind_Direction
176 184 232 244 223 125 88 82 155 82 66 46 53 7 50 33 15 45 141 129 135 133 145 156 159 153 157 159 152 153 155 152 148 144 141 135 133 129 124 118 109 102 99 92 84 81 76 67 58
220 226 233 279 259 98 82 134 83 74 92 99 94 105 49 76 46 93 125 133 138 131 149 152 158 152 154 154 149 151 154 152 148 146 141 136 131 128 124 120 114 108 100 92 88 81 76 68 59
225 236 268 285 334 79 100 103 112 111 129 225 107 52 28 9 47 86 105 136 127 134 144 150 152 152 151 151 154 160 160 155 148 142 135 129 126 124 122 118 112 105 98 91 88 80 71 61 52
220 203 224 253 100 88 93 116 133 146 105 83 87 82 99 24 25 71 105 128 126 131 132 133 143 140 139 146 155 159 159 149 144 140 138 135 133 130 127 123 117 110 103 94 87 76 66 56 45
234 246 226 157 94 96 91 88 172 160 108 105 91 93 84 41 58 92 102 117 127 121 109 122 127 138 142 151 157 162 154 149 141 135 133 136 134 133 133 129 122 113 103 91 78 65 53 40 31
225 277 220 122 95 90 65 220 202 99 104 105 90 91 74 81 75 97 105 110 109 110 117 114 112 139 147 165 157 153 153 147 138 135 133 127 133 136 133 127 117 111 107 95 80 65 43 27 16
293 258 85 105 119 70 71 115 163 129 98 56 94 77 99 93 94 105 98 99 89 85 96 83 109 129 152 158 155 154 154 149 146 147 145 143 140 140 137 129 121 123 122 115 81 62 25 12 2
292 274 151 58 67 68 84 88 62 52 57 98 347 117 133 116 117 107 87 86 78 73 65 60 60 75 138 148 150 152 155 158 153 150 152 154 156 157 153 129 146 147 158 162 78 21 1 355 347
283 242 91 46 32 90 120 106 82 78 79 60 59 78 101 119 115 95 98 68 66 57 51 44 35 54 69 119 121 125 165 167 156 153 159 142 175 175 198 221 227 207 191 228 263 310 343 351 342
307 29 46 17 39 84 73 89 110 121 92 81 83 90 103 102 103 101 91 74 59 47 40 35 31 34 36 92 122 120 106 187 179 181 183 191 199 212 215 234 230 229 233 257 270 321 346 348 333
54 10 330 38 99 98 93 66 96 120 70 80 100 85 89 85 72 86 84 82 72 58 42 31 26 20 0 50 140 151 217 195 201 209 221 230 233 243 253 249 245 243 257 260 288 311 317 331 324
103 52 64 73 111 89 84 88 65 65 83 80 78 80 78 73 70 77 76 62 64 56 48 40 34 32 29 23 39 122 215 222 224 234 266 263 264 263 271 267 261 259 259 284 297 310 320 320 313
104 84 85 92 92 86 82 73 80 72 83 84 78 75 79 79 80 81 79 67 65 59 53 49 45 43 39 37 40 48 41 15 330 343 2 327 284 281 277 268 259 275 287 301 309 307 303 298 299
112 108 96 98 95 90 88 74 73 66 91 84 77 77 79 86 93 84 72 66 63 62 54 50 49 50 51 47 48 43 42 28 27 30 25 24 32 25 345 271 20 24 346 316 313 308 294 291 300
132 119 99 93 123 126 103 60 74 87 86 89 89 87 82 80 76 71 72 69 60 55 52 46 46 43 45 46 46 46 38 39 29 26 16 12 1 339 318 303 288 291 292 295 294 289 288 287 297
169 220 145 60 185 27 243 112 54 110 109 90 99 101 95 79 75 74 72 67 60 61 57 49 52 49 44 37 40 28 25 30 15 14 358 6 347 342 332 303 288 286 285 281 270 250 278 306 312
200 93 119 86 33 154 308 127 142 105 116 105 97 105 90 82 75 71 71 72 69 69 64 55 45 39 31 26 23 23 19 14 5 354 350 336 325 327 328 315 319 295 270 249 247 270 286 299 316
123 128 89 88 57 86 93 124 130 152 161 123 113 85 89 81 79 88 87 87 80 70 67 62 54 39 30 21 11 360 353 352 351 339 352 347 354 360 344 319 299 291 263 258 243 250 241 266 277
87 104 112 112 106 96 129 145 152 155 148 117 107 109 126 112 124 108 108 91 86 77 62 48 39 30 22 9 358 350 343 337 334 337 343 335 333 323 310 300 290 277 260 255 229 244 247 262 278
105 119 113 115 179 222 157 141 145 179 126 129 133 124 112 114 102 84 75 68 67 60 50 40 29 21 15 4 357 352 344 340 332 343 328 326 327 322 314 313 302 291 284 268 249 225 224 261 252
54 18 168 55 160 162 176 182 178 159 147 148 127 172 122 107 108 90 78 54 42 39 31 24 17 13 9 359 354 355 346 345 345 339 333 338 320 314 309 307 304 303 297 291 258 228 216 253 240
63 4 189 166 199 325 203 332 187 165 177 193 190 169 143 112 78 107 73 43 30 22 16 11 9 6 359 358 351 348 339 339 335 329 339 322 324 313 305 305 302 300 306 298 278 246 238 244 275
51 200 216 201 243 263 184 256 99 162 187 189 205 152 122 102 54 58 40 21 19 12 7 9 4 357 356 349 344 339 342 333 330 330 331 319 324 320 311 313 300 294 300 301 296 259 248 260 270
130 175 233 219 252 251 94 281 74 73 292 140 151 119 107 74 64 40 24 359 3 360 4 358 353 348 342 340 337 339 334 329 329 333 322 334 323 329 322 327 321 317 316 314 314 298 277 258 270
241 300 311 289 283 333 80 276 41 45 38 27 130 114 89 66 28 313 318 355 2 7 1 349 346 337 337 336 335 333 327 324 324 332 332 326 327 322 325 331 336 328 328 333 333 314 281 268 265
338 329 322 311 320 324 151 356 66 34 40 55 77 103 99 101 250 274 329 350 350 354 354 338 338 336 337 337 328 328 329 332 330 332 332 332 331 324 325 330 341 345 346 352 345 330 318 308 255
353 331 337 285 267 261 63 106 105 107 68 65 105 118 134 212 267 309 333 7 4 346 328 341 341 339 345 337 335 338 339 338 338 335 331 330 332 334 337 347 2 11 17 23 27 21 1 328 318
12 1 309 288 296 314 93 64 35 11 81 148 148 139 230 244 320 342 12 6 347 329 338 346 352 0 350 347 351 352 353 347 341 329 322 323 326 336 343 2 12 22 33 38 40 41 47 60 68
347 359 330 284 317 316 329 71 36 6 20 104 105 159 43 34 26 32 32 323 337 338 343 8 358 344 344 351 355 351 346 339 335 341 343 337 330 344 21 31 28 26 27 32 40 44 38 46 43
50 13 347 320 27 348 280 72 32 23 43 49 56 75 61 44 46 21 342 345 347 343 2 354 343 345 350 357 355 350 356 0 355 354 356 4 10 9 17 28 27 26 19 9 14 18 13 12 354